DW1157 Weather Reports


Display with metric or nautical units.
time (UTC)temp
F
wind
direction
speed
MPH
gust
MPH
rain 1hr
in
rain 24hr
in
rain mn
in
humidity
%
barometer
mb
20260504180648 81 213 1.0 0.0 0.00 0.00 0.00 73 1007.0
20260504180520 81 209 1.0 0.0 0.00 0.00 0.00 73 1007.0
20260504180435 81 197 1.0 0.0 0.00 0.00 0.00 73 1007.0
20260504180359 81 175 1.0 0.0 0.00 0.00 0.00 74 1007.0
20260504180230 81 221 1.0 0.0 0.00 0.00 0.00 74 1007.0
20260504180155 81 188 2.0 0.0 0.00 0.00 0.00 74 1007.0
20260504180027 81 150 2.0 0.0 0.00 0.00 0.00 74 1007.1
20260504175947 81 186 2.0 0.0 0.00 0.00 0.00 74 1007.1
20260504175850 81 198 2.0 0.0 0.00 0.00 0.00 74 1007.1
20260504175722 81 90 2.0 0.0 0.00 0.00 0.00 74 1007.1
20260504175637 81 74 2.0 0.0 0.00 0.00 0.00 74 1007.1
20260504175542 81 216 2.0 0.0 0.00 0.00 0.00 73 1007.1
20260504175437 81 155 2.0 0.0 0.00 0.00 0.00 73 1007.1
20260504175340 81 150 2.0 0.0 0.00 0.00 0.00 73 1007.1
20260504175230 81 211 2.0 0.0 0.00 0.00 0.00 73 1007.1
20260504175126 81 205 2.0 0.0 0.00 0.00 0.00 74 1007.1
20260504175029 81 227 2.0 0.0 0.00 0.00 0.00 73 1007.1
20260504174923 81 165 2.0 0.0 0.00 0.00 0.00 73 1007.1
20260504174847 81 78 2.0 0.0 0.00 0.00 0.00 73 1007.1
20260504174739 81 186 2.0 0.0 0.00 0.00 0.00 73 1007.1
20260504174632 81 178 2.0 0.0 0.00 0.00 0.00 74 1007.1
20260504174537 81 215 1.0 0.0 0.00 0.00 0.00 74 1007.4
20260504174449 81 175 2.0 0.0 0.00 0.00 0.00 74 1007.4
20260504174330 81 166 1.0 0.0 0.00 0.00 0.00 74 1007.4
20260504174222 81 250 1.0 0.0 0.00 0.00 0.00 74 1007.4
20260504174148 81 195 1.0 0.0 0.00 0.00 0.00 74 1007.4
20260504174021 81 248 1.0 0.0 0.00 0.00 0.00 74 1007.4
20260504173933 81 238 1.0 0.0 0.00 0.00 0.00 74 1007.4
20260504173832 81 321 1.0 0.0 0.00 0.00 0.00 74 1007.4
20260504173728 81 151 1.0 0.0 0.00 0.00 0.00 74 1007.4
20260504173651 81 151 1.0 0.0 0.00 0.00 0.00 74 1007.4
20260504173602 81 174 1.0 0.0 0.00 0.00 0.00 74 1007.4
20260504173441 81 171 1.0 0.0 0.00 0.00 0.00 74 1007.4
20260504173339 80 200 1.0 0.0 0.00 0.00 0.00 74 1007.4
20260504173304 80 123 1.0 0.0 0.00 0.00 0.00 75 1007.4
20260504173154 80 178 2.0 0.0 0.00 0.00 0.00 74 1007.4
20260504173035 80 218 2.0 0.0 0.00 0.00 0.00 75 1007.6
20260504172926 80 194 2.0 0.0 0.00 0.00 0.00 75 1007.6
20260504172637 80 213 2.0 0.0 0.00 0.00 0.00 75 1007.6
20260504172538 80 171 2.0 0.0 0.00 0.00 0.00 74 1007.6
20260504172455 80 25 2.0 0.0 0.00 0.00 0.00 74 1007.6
20260504172320 80 160 2.0 0.0 0.00 0.00 0.00 74 1007.6
20260504172235 80 163 2.0 0.0 0.00 0.00 0.00 74 1007.6
20260504172137 80 202 2.0 0.0 0.00 0.00 0.00 74 1007.6
20260504172050 80 229 2.0 0.0 0.00 0.00 0.00 74 1007.6
20260504171931 80 219 2.0 0.0 0.00 0.00 0.00 74 1007.6
20260504171822 80 203 2.0 0.0 0.00 0.00 0.00 74 1007.6
20260504171746 80 188 2.0 0.0 0.00 0.00 0.00 74 1007.6
20260504171622 80 159 1.0 0.0 0.00 0.00 0.00 74 1007.7
20260504171533 80 170 1.0 0.0 0.00 0.00 0.00 74 1007.7
20260504171433 80 216 1.0 0.0 0.00 0.00 0.00 74 1007.7
20260504171327 80 226 1.0 0.0 0.00 0.00 0.00 74 1007.7
20260504171222 80 162 1.0 0.0 0.00 0.00 0.00 75 1007.7
20260504171147 80 169 1.0 0.0 0.00 0.00 0.00 75 1007.7
20260504171107 80 204 1.0 0.0 0.00 0.00 0.00 74 1007.7
20260504170940 80 158 2.0 0.0 0.00 0.00 0.00 75 1007.7
20260504170846 80 231 2.0 0.0 0.00 0.00 0.00 75 1007.7
20260504170721 79 202 2.0 0.0 0.00 0.00 0.00 75 1007.7
20260504170634 79 233 2.0 0.0 0.00 0.00 0.00 75 1007.7
20260504170536 79 212 2.0 0.0 0.00 0.00 0.00 75 1007.7
20260504170431 79 204 2.0 0.0 0.00 0.00 0.00 74 1007.7
20260504170324 79 198 2.0 0.0 0.00 0.00 0.00 74 1007.7
20260504170226 80 184 2.0 0.0 0.00 0.00 0.00 74 1007.7
20260504170121 80 227 2.0 0.0 0.00 0.00 0.00 74 1007.8
20260504160421 79 277 4.0 0.0 0.00 0.00 0.00 74 1008.1
20260504160344 79 182 4.0 0.0 0.00 0.00 0.00 73 1008.1
20260504160246 79 220 4.0 0.0 0.00 0.00 0.00 74 1008.1
20260504160117 79 190 3.0 0.0 0.00 0.00 0.00 73 1008.0
20260504150819 79 196 4.0 0.0 0.00 0.00 0.00 75 1008.2
20260504150721 79 196 4.0 0.0 0.00 0.00 0.00 75 1008.2
20260504150646 79 196 4.0 0.0 0.00 0.00 0.00 75 1008.2
20260504150522 79 198 4.0 0.0 0.00 0.00 0.00 74 1008.2
20260504150434 79 192 4.0 0.0 0.00 0.00 0.00 74 1008.2
20260504150336 79 190 4.0 0.0 0.00 0.00 0.00 74 1008.2
20260504150228 79 186 3.0 0.0 0.00 0.00 0.00 75 1008.2
20260504150149 79 237 3.0 0.0 0.00 0.00 0.00 75 1008.2
20260504130806 71 102 0.0 0.0 0.00 0.00 0.00 88 1008.8
20260504130710 70 242 0.0 0.0 0.00 0.00 0.00 88 1008.8
20260504130620 70 242 0.0 0.0 0.00 0.00 0.00 88 1008.8
20260504130505 70 247 0.0 0.0 0.00 0.00 0.00 88 1008.8
20260504130420 70 254 0.0 0.0 0.00 0.00 0.00 88 1008.8
20260504130344 70 252 0.0 0.0 0.00 0.00 0.00 88 1008.8
20260504120315 68 217 0.0 0.0 0.00 0.00 0.00 89 1008.3
20260504120206 68 96 0.0 0.0 0.00 0.00 0.00 89 1008.3
20260504120108 68 242 0.0 0.0 0.00 0.00 0.00 89 1008.3
20260504110632 67 196 0.0 0.0 0.00 0.00 0.00 89 1008.5
20260504110503 67 196 0.0 0.0 0.00 0.00 0.00 89 1008.5
20260504110424 67 98 0.0 0.0 0.00 0.00 0.00 89 1008.5
20260504110323 67 99 0.0 0.0 0.00 0.00 0.00 89 1008.5
20260504110158 67 99 0.0 0.0 0.00 0.00 0.00 89 1008.5
20260504110110 67 96 0.0 0.0 0.00 0.00 0.00 89 1008.3
20260504100518 67 256 0.0 0.0 0.00 0.00 0.00 88 1008.7
20260504100433 67 256 0.0 0.0 0.00 0.00 0.00 88 1008.7
20260504100316 67 256 0.0 0.0 0.00 0.00 0.00 88 1008.7
20260504100230 67 256 0.0 0.0 0.00 0.00 0.00 88 1008.7
20260504100134 67 256 0.0 0.0 0.00 0.00 0.00 88 1008.8
20260504081858 68 183 0.0 0.0 0.00 0.00 0.00 85 1009.6
20260504081810 68 126 0.0 0.0 0.00 0.00 0.00 84 1009.6
20260504081712 68 110 0.0 0.0 0.00 0.00 0.00 84 1009.6
20260504081606 68 110 0.0 0.0 0.00 0.00 0.00 84 1009.7
20260504081504 68 100 0.0 0.0 0.00 0.00 0.00 84 1009.7
20260504081408 68 100 0.0 0.0 0.00 0.00 0.00 84 1009.7
20260504081306 68 123 0.0 0.0 0.00 0.00 0.00 84 1009.7
20260504081158 68 80 0.0 0.0 0.00 0.00 0.00 84 1009.7
20260504081102 68 104 0.0 0.0 0.00 0.00 0.00 84 1009.7
20260504081017 68 104 0.0 0.0 0.00 0.00 0.00 84 1009.7
20260504080918 68 96 0.0 0.0 0.00 0.00 0.00 84 1009.7
20260504080812 68 133 0.0 0.0 0.00 0.00 0.00 84 1009.7
20260504080734 68 224 0.0 0.0 0.00 0.00 0.00 84 1009.7
20260504080611 68 224 0.0 0.0 0.00 0.00 0.00 84 1009.7
20260504080512 68 224 0.0 0.0 0.00 0.00 0.00 84 1009.7
20260504080404 68 115 0.0 0.0 0.00 0.00 0.00 84 1009.7
20260504080258 68 115 0.0 0.0 0.00 0.00 0.00 84 1009.7
20260504080224 68 190 0.0 0.0 0.00 0.00 0.00 84 1009.7
20260504070347 69 107 0.0 0.0 0.00 0.00 0.00 82 1010.5
20260504070201 69 107 0.0 0.0 0.00 0.00 0.00 82 1010.5
20260504070117 69 107 0.0 0.0 0.00 0.00 0.00 82 1010.6
20260504060202 70 187 0.0 0.0 0.00 0.00 0.00 80 1011.3
20260504060107 70 187 0.0 0.0 0.00 0.00 0.00 80 1011.5
20260504050730 71 236 0.0 0.0 0.00 0.00 0.00 77 1012.0
20260504050603 71 211 0.0 0.0 0.00 0.00 0.00 77 1012.0
20260504050512 71 211 0.0 0.0 0.00 0.00 0.00 77 1012.0
20260504050404 71 211 0.0 0.0 0.00 0.00 0.00 77 1012.0
20260504050323 71 211 0.0 0.0 0.00 0.00 0.00 77 1012.0
20260504050214 71 205 0.0 0.0 0.00 0.00 0.00 77 1012.0
20260504050114 71 205 0.0 0.0 0.00 0.00 0.00 77 1012.2
20260504050009 71 195 0.0 0.0 0.00 0.00 0.00 77 1012.2
20260504045930 71 184 0.0 0.0 0.00 0.00 0.00 77 1012.2
20260504045801 71 184 0.0 0.0 0.00 0.00 0.00 77 1012.2
20260504045722 71 184 0.0 0.0 0.00 0.00 0.00 77 1012.2
20260504045617 71 238 0.0 0.0 0.00 0.00 0.00 77 1012.2
20260504045508 71 143 0.0 0.0 0.00 0.00 0.00 77 1012.2
20260504045411 71 211 0.0 0.0 0.00 0.00 0.00 77 1012.2
20260504045304 71 200 0.0 0.0 0.00 0.00 0.00 77 1012.2
20260504045224 71 55 0.0 0.0 0.00 0.00 0.00 77 1012.2
20260504045114 71 212 0.0 0.0 0.00 0.00 0.00 77 1012.2
20260504045022 71 185 0.0 0.0 0.00 0.00 0.00 77 1012.2
20260504044922 71 221 0.0 0.0 0.00 0.00 0.00 77 1012.2
20260504044816 71 214 0.0 0.0 0.00 0.00 0.00 77 1012.2
20260504044706 71 214 0.0 0.0 0.00 0.00 0.00 76 1012.2
20260504044608 71 196 0.0 0.0 0.00 0.00 0.00 76 1012.4
20260504044533 71 196 0.0 0.0 0.00 0.00 0.00 76 1012.4
20260504044447 71 204 0.0 0.0 0.00 0.00 0.00 76 1012.4
20260504044346 71 204 0.0 0.0 0.00 0.00 0.00 76 1012.4
20260504044249 71 204 0.0 0.0 0.00 0.00 0.00 76 1012.4
20260504044059 71 262 0.0 0.0 0.00 0.00 0.00 76 1012.4
20260504043955 71 293 0.0 0.0 0.00 0.00 0.00 76 1012.4
20260504043922 71 55 0.0 0.0 0.00 0.00 0.00 76 1012.4
20260504043815 72 86 0.0 0.0 0.00 0.00 0.00 76 1012.4
20260504043706 72 143 0.0 0.0 0.00 0.00 0.00 76 1012.4
20260504043633 72 216 0.0 0.0 0.00 0.00 0.00 76 1012.4
20260504043507 72 154 0.0 0.0 0.00 0.00 0.00 76 1012.4
20260504043408 72 269 0.0 0.0 0.00 0.00 0.00 76 1012.4
20260504043303 72 129 1.0 0.0 0.00 0.00 0.00 76 1012.4
20260504043200 72 230 1.0 0.0 0.00 0.00 0.00 75 1012.4
20260504043124 72 104 1.0 0.0 0.00 0.00 0.00 75 1012.5
20260504043048 72 101 1.0 0.0 0.00 0.00 0.00 75 1012.5
20260504042859 72 207 0.0 0.0 0.00 0.00 0.00 75 1012.5
20260504042812 72 177 0.0 0.0 0.00 0.00 0.00 75 1012.5
20260504042712 72 177 1.0 0.0 0.00 0.00 0.00 75 1012.5
20260504042604 72 211 1.0 0.0 0.00 0.00 0.00 75 1012.5
20260504042500 72 222 1.0 0.0 0.00 0.00 0.00 75 1012.5
20260504042424 72 169 1.0 0.0 0.00 0.00 0.00 75 1012.5
20260504042343 72 155 1.0 0.0 0.00 0.00 0.00 75 1012.5
20260504042159 72 101 1.0 0.0 0.00 0.00 0.00 75 1012.5
20260504042112 72 102 1.0 0.0 0.00 0.00 0.00 75 1012.5
20260504042017 72 216 1.0 0.0 0.00 0.00 0.00 75 1012.5
20260504041908 72 153 1.0 0.0 0.00 0.00 0.00 75 1012.5
20260504041805 72 67 1.0 0.0 0.00 0.00 0.00 75 1012.5
20260504041715 72 100 1.0 0.0 0.00 0.00 0.00 75 1012.5
20260504041639 72 150 1.0 0.0 0.00 0.00 0.00 75 1012.5
20260504041509 72 113 0.0 0.0 0.00 0.00 0.00 75 1012.5
20260504041429 72 306 0.0 0.0 0.00 0.00 0.00 74 1012.5
20260504041303 72 167 0.0 0.0 0.00 0.00 0.00 74 1012.5
20260504041222 72 257 0.0 0.0 0.00 0.00 0.00 74 1012.5
20260504041117 72 216 0.0 0.0 0.00 0.00 0.00 74 1012.5
20260504041013 72 97 0.0 0.0 0.00 0.00 0.00 74 1012.5
20260504040938 72 209 0.0 0.0 0.00 0.00 0.00 74 1012.5
20260504040809 72 273 0.0 0.0 0.00 0.00 0.00 74 1012.5
20260504040708 72 208 0.0 0.0 0.00 0.00 0.00 74 1012.5
20260504040624 72 146 0.0 0.0 0.00 0.00 0.00 74 1012.5
20260504040507 72 146 0.0 0.0 0.00 0.00 0.00 74 1012.5
20260504040419 72 177 0.0 0.0 0.00 0.00 0.00 74 1012.5
20260504040320 72 209 0.0 0.0 0.00 0.00 0.00 74 1012.5
20260504040155 72 107 1.0 0.0 0.00 0.00 0.00 74 1012.5
20260504040108 72 155 1.0 0.0 0.00 0.00 0.00 74 1012.4
20260504040015 72 97 1.0 0.0 0.00 0.00 0.00 74 1012.4
20260504035928 72 126 1.0 0.0 0.00 0.00 0.00 74 1012.4
20260504035807 72 98 1.0 0.0 0.00 0.00 0.00 74 1012.4
20260504035702 72 229 1.0 0.0 0.00 0.00 0.00 74 1012.4
20260504035623 72 93 1.0 0.0 0.00 0.00 0.00 73 1012.4
20260504035518 72 221 1.0 0.0 0.00 0.00 0.00 73 1012.4
20260504035440 72 233 1.0 0.0 0.00 0.00 0.00 73 1012.4
20260504035335 72 188 1.0 0.0 0.00 0.00 0.00 73 1012.4
20260504035214 72 169 0.0 0.0 0.00 0.00 0.00 73 1012.4
20260504035108 72 111 0.0 0.0 0.00 0.00 0.00 73 1012.4
20260504035004 72 232 1.0 0.0 0.00 0.00 0.00 73 1012.4
20260504034904 72 202 1.0 0.0 0.00 0.00 0.00 73 1012.4
20260504034829 73 202 1.0 0.0 0.00 0.00 0.00 73 1012.4
20260504034740 73 102 1.0 0.0 0.00 0.00 0.00 73 1012.4
20260504034621 73 109 1.0 0.0 0.00 0.00 0.00 73 1012.4
20260504034517 73 92 0.0 0.0 0.00 0.00 0.00 73 1012.4
20260504034418 73 105 0.0 0.0 0.00 0.00 0.00 73 1012.4
20260504034312 73 106 0.0 0.0 0.00 0.00 0.00 73 1012.4
20260504034205 73 134 0.0 0.0 0.00 0.00 0.00 73 1012.4
20260504034106 73 194 0.0 0.0 0.00 0.00 0.00 73 1012.4
20260504034018 73 163 0.0 0.0 0.00 0.00 0.00 73 1012.4
20260504033918 73 98 0.0 0.0 0.00 0.00 0.00 72 1012.4
20260504033815 73 229 0.0 0.0 0.00 0.00 0.00 72 1012.4
20260504033735 73 92 0.0 0.0 0.00 0.00 0.00 72 1012.4
20260504033607 73 94 0.0 0.0 0.00 0.00 0.00 72 1012.4
20260504033502 73 269 0.0 0.0 0.00 0.00 0.00 72 1012.4
20260504033403 73 240 1.0 0.0 0.00 0.00 0.00 72 1012.4
20260504033318 73 100 1.0 0.0 0.00 0.00 0.00 72 1012.4
20260504033221 73 92 1.0 0.0 0.00 0.00 0.00 72 1012.4
20260504033142 73 216 1.0 0.0 0.00 0.00 0.00 72 1012.4
20260504033012 73 265 1.0 0.0 0.00 0.00 0.00 72 1012.4
20260504032909 73 127 1.0 0.0 0.00 0.00 0.00 72 1012.4
20260504032828 73 123 1.0 0.0 0.00 0.00 0.00 72 1012.4
20260504032703 73 221 0.0 0.0 0.00 0.00 0.00 72 1012.4
20260504032604 73 198 0.0 0.0 0.00 0.00 0.00 71 1012.4
20260504032458 73 204 0.0 0.0 0.00 0.00 0.00 71 1012.4
20260504032423 73 236 0.0 0.0 0.00 0.00 0.00 71 1012.4
20260504032335 73 76 0.0 0.0 0.00 0.00 0.00 71 1012.4
20260504032215 73 186 0.0 0.0 0.00 0.00 0.00 71 1012.4
20260504032133 73 45 0.0 0.0 0.00 0.00 0.00 71 1012.4
20260504032014 73 85 0.0 0.0 0.00 0.00 0.00 71 1012.4
20260504031909 73 53 0.0 0.0 0.00 0.00 0.00 71 1012.4
20260504031830 73 263 0.0 0.0 0.00 0.00 0.00 71 1012.4
20260504031701 73 261 1.0 0.0 0.00 0.00 0.00 71 1012.4
20260504031616 73 261 1.0 0.0 0.00 0.00 0.00 71 1012.2
20260504031458 73 154 1.0 0.0 0.00 0.00 0.00 71 1012.2
20260504031423 73 154 1.0 0.0 0.00 0.00 0.00 71 1012.2
20260504031340 73 154 1.0 0.0 0.00 0.00 0.00 71 1012.2
20260504031240 73 213 0.0 0.0 0.00 0.00 0.00 71 1012.2
20260504031139 73 143 0.0 0.0 0.00 0.00 0.00 70 1012.2
20260504031033 73 126 0.0 0.0 0.00 0.00 0.00 70 1012.2
20260504030913 73 240 0.0 0.0 0.00 0.00 0.00 70 1012.2
20260504030808 73 202 0.0 0.0 0.00 0.00 0.00 70 1012.2
20260504030700 73 167 0.0 0.0 0.00 0.00 0.00 70 1012.2
20260504030600 73 279 0.0 0.0 0.00 0.00 0.00 70 1012.2
20260504030516 74 215 0.0 0.0 0.00 0.00 0.00 70 1012.2
20260504030421 74 116 0.0 0.0 0.00 0.00 0.00 70 1012.2
20260504030316 74 129 0.0 0.0 0.00 0.00 0.00 70 1012.2
20260504030207 74 183 0.0 0.0 0.00 0.00 0.00 70 1012.2
20260504030108 74 78 0.0 0.0 0.00 0.00 0.00 70 1012.2
20260504030000 74 147 0.0 0.0 0.00 0.00 0.00 70 1012.2
20260504025922 74 192 1.0 0.0 0.00 0.00 0.00 70 1012.2
20260504025814 74 105 1.0 0.0 0.00 0.00 0.00 69 1012.2
20260504025709 74 92 1.0 0.0 0.00 0.00 0.00 69 1012.2
20260504025610 74 94 1.0 0.0 0.00 0.00 0.00 69 1012.2
20260504025502 74 96 1.0 0.0 0.00 0.00 0.00 69 1012.2
20260504025423 74 81 1.0 0.0 0.00 0.00 0.00 69 1012.2
20260504025315 74 221 1.0 0.0 0.00 0.00 0.00 69 1012.2
20260504025215 74 78 1.0 0.0 0.00 0.00 0.00 69 1012.2
20260504025112 74 202 1.0 0.0 0.00 0.00 0.00 69 1012.2
20260504025008 74 125 1.0 0.0 0.00 0.00 0.00 69 1012.2
20260504024909 74 108 1.0 0.0 0.00 0.00 0.00 69 1012.2
20260504024804 74 329 0.0 0.0 0.00 0.00 0.00 69 1012.2
20260504024726 74 140 0.0 0.0 0.00 0.00 0.00 69 1012.2
20260504024619 74 200 1.0 0.0 0.00 0.00 0.00 69 1011.9
20260504024520 74 170 1.0 0.0 0.00 0.00 0.00 69 1011.9
20260504024412 74 219 1.0 0.0 0.00 0.00 0.00 69 1011.9
20260504024314 74 140 1.0 0.0 0.00 0.00 0.00 68 1011.9
20260504024208 74 306 1.0 0.0 0.00 0.00 0.00 68 1011.9
20260504024102 74 220 1.0 0.0 0.00 0.00 0.00 68 1011.9
20260504024027 74 219 1.0 0.0 0.00 0.00 0.00 68 1011.9
20260504023949 74 182 1.0 0.0 0.00 0.00 0.00 68 1011.9
20260504023759 74 142 1.0 0.0 0.00 0.00 0.00 68 1011.9
20260504023712 74 57 1.0 0.0 0.00 0.00 0.00 68 1011.9
20260504023612 74 167 1.0 0.0 0.00 0.00 0.00 68 1011.9
20260504023512 74 130 1.0 0.0 0.00 0.00 0.00 68 1011.9
20260504023406 74 111 1.0 0.0 0.00 0.00 0.00 68 1011.9
20260504023333 74 103 1.0 0.0 0.00 0.00 0.00 68 1011.9
20260504023210 74 223 1.0 0.0 0.00 0.00 0.00 67 1011.9
20260504023106 74 226 1.0 0.0 0.00 0.00 0.00 67 1011.6
20260504023027 75 100 1.0 0.0 0.00 0.00 0.00 67 1011.6
20260504022858 75 114 1.0 0.0 0.00 0.00 0.00 67 1011.6
20260504022814 75 92 1.0 0.0 0.00 0.00 0.00 67 1011.6
20260504022719 75 79 1.0 0.0 0.00 0.00 0.00 67 1011.6
20260504022611 75 258 1.0 0.0 0.00 0.00 0.00 67 1011.6
20260504022511 75 98 1.0 0.0 0.00 0.00 0.00 67 1011.6
20260504022406 75 95 1.0 0.0 0.00 0.00 0.00 67 1011.6
20260504022327 75 50 1.0 0.0 0.00 0.00 0.00 67 1011.6
20260504022158 75 171 1.0 0.0 0.00 0.00 0.00 67 1011.6
20260504022114 75 94 1.0 0.0 0.00 0.00 0.00 67 1011.6
20260504022015 75 146 1.0 0.0 0.00 0.00 0.00 66 1011.6
20260504021910 75 118 0.0 0.0 0.00 0.00 0.00 66 1011.6
20260504021803 75 212 1.0 0.0 0.00 0.00 0.00 66 1011.6
20260504021702 75 114 1.0 0.0 0.00 0.00 0.00 66 1011.6
20260504021554 75 160 1.0 0.0 0.00 0.00 0.00 66 1011.4
20260504021521 75 218 1.0 0.0 0.00 0.00 0.00 66 1011.4
20260504021358 75 117 1.0 0.0 0.00 0.00 0.00 66 1011.4
20260504021309 75 102 1.0 0.0 0.00 0.00 0.00 66 1011.4
20260504021213 75 225 1.0 0.0 0.00 0.00 0.00 66 1011.4
20260504021129 75 148 1.0 0.0 0.00 0.00 0.00 66 1011.4
20260504021008 75 296 1.0 0.0 0.00 0.00 0.00 66 1011.4
20260504020904 75 144 1.0 0.0 0.00 0.00 0.00 65 1011.4
20260504020759 75 74 0.0 0.0 0.00 0.00 0.00 65 1011.4
20260504020724 75 95 0.0 0.0 0.00 0.00 0.00 65 1011.4
20260504020645 75 158 0.0 0.0 0.00 0.00 0.00 65 1011.4
20260504020516 75 213 0.0 0.0 0.00 0.00 0.00 65 1011.4
20260504020421 75 255 0.0 0.0 0.00 0.00 0.00 65 1011.4
20260504020317 75 255 0.0 0.0 0.00 0.00 0.00 65 1011.4
20260504020238 75 262 0.0 0.0 0.00 0.00 0.00 65 1011.4
20260504020112 75 225 0.0 0.0 0.00 0.00 0.00 65 1011.3
20260504020033 75 270 0.0 0.0 0.00 0.00 0.00 65 1011.3
20260504015904 75 96 0.0 0.0 0.00 0.00 0.00 64 1011.3
20260504015826 76 79 0.0 0.0 0.00 0.00 0.00 64 1011.3
20260504015704 76 205 0.0 0.0 0.00 0.00 0.00 64 1011.3
20260504015617 76 140 0.0 0.0 0.00 0.00 0.00 64 1011.3
20260504015518 76 85 0.0 0.0 0.00 0.00 0.00 64 1011.3
20260504015410 76 34 0.0 0.0 0.00 0.00 0.00 64 1011.3
20260504015337 76 211 1.0 0.0 0.00 0.00 0.00 64 1011.3
20260504015211 76 114 1.0 0.0 0.00 0.00 0.00 63 1011.3
20260504015104 76 150 1.0 0.0 0.00 0.00 0.00 63 1011.3
20260504015006 76 89 1.0 0.0 0.00 0.00 0.00 63 1011.3
20260504014902 76 89 1.0 0.0 0.00 0.00 0.00 63 1011.3
20260504014823 76 173 1.0 0.0 0.00 0.00 0.00 63 1011.3
20260504014711 76 57 1.0 0.0 0.00 0.00 0.00 63 1011.3
20260504014606 76 164 0.0 0.0 0.00 0.00 0.00 63 1011.3
20260504014530 76 202 0.0 0.0 0.00 0.00 0.00 63 1011.3
20260504014450 76 82 0.0 0.0 0.00 0.00 0.00 62 1011.3
20260504014300 76 82 0.0 0.0 0.00 0.00 0.00 62 1011.3
20260504014158 76 85 0.0 0.0 0.00 0.00 0.00 62 1011.3
20260504014124 76 209 0.0 0.0 0.00 0.00 0.00 62 1011.3
20260504014049 76 71 0.0 0.0 0.00 0.00 0.00 62 1011.3
20260504013920 76 74 0.0 0.0 0.00 0.00 0.00 62 1011.3
20260504013840 76 349 0.0 0.0 0.00 0.00 0.00 62 1011.3
20260504013710 76 32 0.0 0.0 0.00 0.00 0.00 62 1011.3
20260504013600 76 236 0.0 0.0 0.00 0.00 0.00 62 1011.3
20260504013521 76 128 0.0 0.0 0.00 0.00 0.00 61 1011.3
20260504013422 77 98 0.0 0.0 0.00 0.00 0.00 61 1011.3
20260504013259 77 104 0.0 0.0 0.00 0.00 0.00 61 1011.3
20260504013210 77 86 0.0 0.0 0.00 0.00 0.00 61 1011.3
20260504013117 77 132 0.0 0.0 0.00 0.00 0.00 61 1010.9
20260504013031 77 236 0.0 0.0 0.00 0.00 0.00 61 1010.9
20260504012911 77 102 0.0 0.0 0.00 0.00 0.00 61 1010.9
20260504012803 77 84 1.0 0.0 0.00 0.00 0.00 61 1010.9
20260504012724 77 110 1.0 0.0 0.00 0.00 0.00 61 1010.9
20260504012558 77 257 1.0 0.0 0.00 0.00 0.00 61 1010.9
20260504012517 77 256 1.0 0.0 0.00 0.00 0.00 61 1010.9
20260504012418 77 256 1.0 0.0 0.00 0.00 0.00 60 1010.9
20260504012309 77 67 1.0 0.0 0.00 0.00 0.00 60 1010.9
20260504012203 77 298 1.0 0.0 0.00 0.00 0.00 60 1010.9
20260504012111 77 265 1.0 0.0 0.00 0.00 0.00 60 1010.9
20260504012005 77 209 1.0 0.0 0.00 0.00 0.00 60 1010.9
20260504011904 77 258 1.0 0.0 0.00 0.00 0.00 60 1010.9
20260504011827 77 260 1.0 0.0 0.00 0.00 0.00 60 1010.9
20260504011721 77 350 1.0 0.0 0.00 0.00 0.00 60 1010.9
20260504011622 77 274 1.0 0.0 0.00 0.00 0.00 60 1011.0
20260504011455 77 36 1.0 0.0 0.00 0.00 0.00 60 1011.0
20260504011409 77 226 1.0 0.0 0.00 0.00 0.00 60 1011.0
20260504011313 77 101 1.0 0.0 0.00 0.00 0.00 60 1011.1
20260504011206 78 143 0.0 0.0 0.00 0.00 0.00 60 1011.0
20260504011128 78 99 0.0 0.0 0.00 0.00 0.00 60 1011.1
20260504011005 78 232 1.0 0.0 0.00 0.00 0.00 60 1011.1
20260504010908 78 177 1.0 0.0 0.00 0.00 0.00 60 1011.1
20260504010759 78 278 1.0 0.0 0.00 0.00 0.00 59 1011.1
20260504010724 78 278 1.0 0.0 0.00 0.00 0.00 59 1011.1
20260504010646 78 300 1.0 0.0 0.00 0.00 0.00 59 1011.1
20260504010518 78 107 1.0 0.0 0.00 0.00 0.00 59 1011.1
20260504010411 78 97 0.0 0.0 0.00 0.00 0.00 59 1011.1
20260504010313 78 26 0.0 0.0 0.00 0.00 0.00 59 1011.1
20260504010201 78 202 0.0 0.0 0.00 0.00 0.00 59 1011.1
20260504010111 78 183 1.0 0.0 0.00 0.00 0.00 59 1010.9
20260504010003 78 230 0.0 0.0 0.00 0.00 0.00 59 1010.9
20260504005928 78 56 0.0 0.0 0.00 0.00 0.00 59 1010.9
20260504005759 78 110 1.0 0.0 0.00 0.00 0.00 59 1010.9
20260504005715 78 273 1.0 0.0 0.00 0.00 0.00 59 1010.9
20260504005636 78 262 1.0 0.0 0.00 0.00 0.00 59 1010.9
20260504005509 78 303 1.0 0.0 0.00 0.00 0.00 58 1010.9
20260504005354 78 184 1.0 0.0 0.00 0.00 0.00 58 1010.9
20260504005312 78 263 1.0 0.0 0.00 0.00 0.00 58 1010.9
20260504005213 78 105 1.0 0.0 0.00 0.00 0.00 58 1010.9
20260504005105 79 90 2.0 0.0 0.00 0.00 0.00 58 1010.9
20260504005026 79 263 2.0 0.0 0.00 0.00 0.00 58 1010.9
20260504004858 79 87 2.0 0.0 0.00 0.00 0.00 58 1010.9
20260504004812 79 113 1.0 0.0 0.00 0.00 0.00 58 1010.9
20260504004713 79 167 1.0 0.0 0.00 0.00 0.00 58 1010.9
20260504004629 79 322 1.0 0.0 0.00 0.00 0.00 58 1010.8
20260504004512 79 179 1.0 0.0 0.00 0.00 0.00 58 1010.8
20260504004404 79 191 1.0 0.0 0.00 0.00 0.00 58 1010.8
20260504004326 79 193 1.0 0.0 0.00 0.00 0.00 58 1010.8
20260504004200 79 171 1.0 0.0 0.00 0.00 0.00 58 1010.8
20260504004114 79 253 0.0 0.0 0.00 0.00 0.00 58 1010.8
20260504004018 79 233 0.0 0.0 0.00 0.00 0.00 58 1010.8
20260504003917 79 100 1.0 0.0 0.00 0.00 0.00 58 1010.8
20260504003818 79 101 1.0 0.0 0.00 0.00 0.00 58 1010.8
20260504003709 79 205 1.0 0.0 0.00 0.00 0.00 58 1010.8
20260504003629 79 227 1.0 0.0 0.00 0.00 0.00 58 1010.8
20260504003504 79 137 1.0 0.0 0.00 0.00 0.00 58 1010.8
20260504003425 79 178 1.0 0.0 0.00 0.00 0.00 57 1010.8
20260504003258 80 209 1.0 0.0 0.00 0.00 0.00 57 1010.8
20260504003213 80 188 1.0 0.0 0.00 0.00 0.00 57 1010.8
20260504003133 80 144 1.0 0.0 0.00 0.00 0.00 57 1010.8
20260504003017 80 154 1.0 0.0 0.00 0.00 0.00 57 1010.8
20260504002912 80 214 1.0 0.0 0.00 0.00 0.00 57 1010.8
20260504002832 80 38 1.0 0.0 0.00 0.00 0.00 57 1010.8
20260504002706 80 128 1.0 0.0 0.00 0.00 0.00 57 1010.8
20260504002557 80 239 1.0 0.0 0.00 0.00 0.00 57 1010.8
20260504002522 80 214 1.0 0.0 0.00 0.00 0.00 57 1010.8
20260504002450 80 92 1.0 0.0 0.00 0.00 0.00 56 1010.8
20260504002320 80 55 1.0 0.0 0.00 0.00 0.00 56 1010.8
20260504002157 80 221 1.0 0.0 0.00 0.00 0.00 56 1010.8
20260504002101 80 97 0.0 0.0 0.00 0.00 0.00 56 1010.8
20260504002013 80 88 1.0 0.0 0.00 0.00 0.00 56 1010.8
20260504001913 80 187 1.0 0.0 0.00 0.00 0.00 56 1010.8
20260504001805 80 198 1.0 0.0 0.00 0.00 0.00 56 1010.8
20260504001726 80 212 1.0 0.0 0.00 0.00 0.00 56 1010.8
20260504001601 80 207 1.0 0.0 0.00 0.00 0.00 56 1010.8
20260504001516 80 92 1.0 0.0 0.00 0.00 0.00 56 1010.8
20260504001416 80 121 1.0 0.0 0.00 0.00 0.00 56 1010.8
20260504001340 81 132 1.0 0.0 0.00 0.00 0.00 56 1010.8
20260504001234 81 288 1.0 0.0 0.00 0.00 0.00 56 1010.8
20260504001112 81 91 1.0 0.0 0.00 0.00 0.00 56 1010.8
20260504001005 81 250 1.0 0.0 0.00 0.00 0.00 56 1010.8
20260504000909 81 89 1.0 0.0 0.00 0.00 0.00 55 1010.8
20260504000801 81 205 1.0 0.0 0.00 0.00 0.00 55 1010.8
20260504000722 81 286 1.0 0.0 0.00 0.00 0.00 55 1010.8
20260504000558 81 126 1.0 0.0 0.00 0.00 0.00 55 1010.8
20260504000510 81 215 1.0 0.0 0.00 0.00 0.00 55 1010.8
20260504000435 81 87 1.0 0.0 0.00 0.00 0.00 55 1010.8
20260504000335 81 233 1.0 0.0 0.00 0.00 0.00 55 1010.8
20260504000205 81 81 1.0 0.0 0.00 0.00 0.00 55 1010.8
20260504000005 81 210 1.0 0.0 0.00 0.00 0.00 55 1010.5
20260503235917 81 227 1.0 0.0 0.00 0.00 0.00 55 1010.5
20260503235821 81 194 1.0 0.0 0.00 0.00 0.00 55 1010.5
20260503235719 81 217 1.0 0.0 0.00 0.00 0.00 55 1010.5
20260503235643 81 174 1.0 0.0 0.00 0.00 0.00 55 1010.5
20260503235513 81 163 1.0 0.0 0.00 0.00 0.00 55 1010.5
20260503235404 81 209 1.0 0.0 0.00 0.00 0.00 55 1010.5
20260503235308 81 211 2.0 0.0 0.00 0.00 0.00 55 1010.5
20260503235200 81 222 2.0 0.0 0.00 0.00 0.00 55 1010.5
20260503235105 81 214 1.0 0.0 0.00 0.00 0.00 55 1010.5
20260503235017 81 209 1.0 0.0 0.00 0.00 0.00 55 1010.5
20260503234921 81 248 1.0 0.0 0.00 0.00 0.00 55 1010.5
20260503234814 82 221 1.0 0.0 0.00 0.00 0.00 54 1010.5
20260503234734 82 211 1.0 0.0 0.00 0.00 0.00 54 1010.5
20260503234603 82 194 0.0 0.0 0.00 0.00 0.00 54 1010.6
20260503234527 82 80 0.0 0.0 0.00 0.00 0.00 54 1010.6
20260503234358 82 95 1.0 0.0 0.00 0.00 0.00 54 1010.6
20260503234313 82 97 0.0 0.0 0.00 0.00 0.00 54 1010.6
20260503234212 82 185 0.0 0.0 0.00 0.00 0.00 54 1010.6
20260503234110 82 164 1.0 0.0 0.00 0.00 0.00 54 1010.6
20260503234034 82 257 1.0 0.0 0.00 0.00 0.00 54 1010.6
20260503233910 82 87 1.0 0.0 0.00 0.00 0.00 53 1010.6
20260503233801 82 80 1.0 0.0 0.00 0.00 0.00 53 1010.6
20260503233706 82 149 1.0 0.0 0.00 0.00 0.00 53 1010.6
20260503233603 82 157 1.0 0.0 0.00 0.00 0.00 53 1010.6
20260503233506 82 78 1.0 0.0 0.00 0.00 0.00 53 1010.6
20260503233426 82 297 0.0 0.0 0.00 0.00 0.00 53 1010.6
20260503233300 82 94 0.0 0.0 0.00 0.00 0.00 53 1010.6
20260503233221 82 145 0.0 0.0 0.00 0.00 0.00 53 1010.6
20260503233116 82 227 0.0 0.0 0.00 0.00 0.00 53 1010.8
20260503233021 82 252 0.0 0.0 0.00 0.00 0.00 53 1010.8
20260503232917 82 301 0.0 0.0 0.00 0.00 0.00 53 1010.8
20260503232809 82 171 0.0 0.0 0.00 0.00 0.00 53 1010.8
20260503232713 82 168 0.0 0.0 0.00 0.00 0.00 53 1010.8
20260503232624 83 116 0.0 0.0 0.00 0.00 0.00 53 1010.8
20260503232507 83 257 0.0 0.0 0.00 0.00 0.00 53 1010.8
20260503232402 83 245 0.0 0.0 0.00 0.00 0.00 53 1010.8
20260503232322 83 247 1.0 0.0 0.00 0.00 0.00 53 1010.8
20260503232216 83 153 1.0 0.0 0.00 0.00 0.00 53 1010.8
20260503232108 83 216 1.0 0.0 0.00 0.00 0.00 53 1010.8
20260503232013 83 174 1.0 0.0 0.00 0.00 0.00 52 1010.8
20260503231939 83 120 1.0 0.0 0.00 0.00 0.00 53 1010.8
20260503231830 83 235 1.0 0.0 0.00 0.00 0.00 53 1010.8
20260503231708 83 65 1.0 0.0 0.00 0.00 0.00 53 1010.8
20260503231601 83 95 1.0 0.0 0.00 0.00 0.00 53 1010.8
20260503231522 83 229 1.0 0.0 0.00 0.00 0.00 53 1010.8
20260503231414 83 190 1.0 0.0 0.00 0.00 0.00 52 1010.8
20260503231309 83 105 1.0 0.0 0.00 0.00 0.00 52 1010.8
20260503231214 83 111 1.0 0.0 0.00 0.00 0.00 53 1010.8
20260503231130 83 203 1.0 0.0 0.00 0.00 0.00 52 1010.8
20260503231008 83 205 1.0 0.0 0.00 0.00 0.00 52 1010.8
20260503230921 83 180 1.0 0.0 0.00 0.00 0.00 52 1010.8
20260503230821 83 146 1.0 0.0 0.00 0.00 0.00 52 1010.8
20260503230714 83 126 1.0 0.0 0.00 0.00 0.00 52 1010.8
20260503230605 83 314 1.0 0.0 0.00 0.00 0.00 52 1010.8
20260503230508 83 80 0.0 0.0 0.00 0.00 0.00 53 1010.8
20260503230403 83 155 1.0 0.0 0.00 0.00 0.00 52 1010.8
20260503230325 83 155 1.0 0.0 0.00 0.00 0.00 52 1010.8
20260503230237 83 190 1.0 0.0 0.00 0.00 0.00 53 1010.8
20260503230116 83 209 1.0 0.0 0.00 0.00 0.00 53 1010.8
20260503230005 83 140 1.0 0.0 0.00 0.00 0.00 53 1010.8
20260503225926 83 123 1.0 0.0 0.00 0.00 0.00 53 1010.8
20260503225758 83 203 1.0 0.0 0.00 0.00 0.00 53 1010.8
20260503225711 83 229 1.0 0.0 0.00 0.00 0.00 53 1010.8
20260503225616 83 249 1.0 0.0 0.00 0.00 0.00 53 1010.8
20260503225508 83 112 1.0 0.0 0.00 0.00 0.00 53 1010.8
20260503225359 83 86 1.0 0.0 0.00 0.00 0.00 53 1010.8
20260503225304 83 19 1.0 0.0 0.00 0.00 0.00 53 1010.8
20260503225214 83 248 1.0 0.0 0.00 0.00 0.00 52 1010.8
20260503225114 83 197 1.0 0.0 0.00 0.00 0.00 53 1010.8
20260503225009 83 324 1.0 0.0 0.00 0.00 0.00 52 1010.8
20260503224904 83 18 1.0 0.0 0.00 0.00 0.00 52 1010.8
20260503224811 83 56 1.0 0.0 0.00 0.00 0.00 53 1010.8
20260503224700 83 39 1.0 0.0 0.00 0.00 0.00 53 1010.8
20260503224621 83 348 1.0 0.0 0.00 0.00 0.00 53 1011.0
20260503224513 83 38 1.0 0.0 0.00 0.00 0.00 53 1011.0
20260503224419 83 298 1.0 0.0 0.00 0.00 0.00 52 1011.0
20260503224310 83 227 1.0 0.0 0.00 0.00 0.00 52 1011.0
20260503224209 83 261 1.0 0.0 0.00 0.00 0.00 52 1011.0
20260503224112 84 355 1.0 0.0 0.00 0.00 0.00 53 1011.0
20260503224007 83 92 1.0 0.0 0.00 0.00 0.00 52 1011.0
20260503223858 84 107 1.0 0.0 0.00 0.00 0.00 52 1011.1
20260503223823 84 81 1.0 0.0 0.00 0.00 0.00 52 1011.1
20260503223723 84 28 1.0 0.0 0.00 0.00 0.00 52 1011.1
20260503223615 84 306 1.0 0.0 0.00 0.00 0.00 51 1011.1
20260503223507 84 348 1.0 0.0 0.00 0.00 0.00 52 1011.1
20260503223412 84 67 1.0 0.0 0.00 0.00 0.00 52 1011.1
20260503223306 84 134 1.0 0.0 0.00 0.00 0.00 51 1011.1
20260503223159 83 126 1.0 0.0 0.00 0.00 0.00 52 1011.0
20260503223123 83 167 1.0 0.0 0.00 0.00 0.00 52 1011.3
20260503223022 83 42 1.0 0.0 0.00 0.00 0.00 51 1011.3
20260503222857 84 163 1.0 0.0 0.00 0.00 0.00 51 1011.4
20260503222810 84 86 1.0 0.0 0.00 0.00 0.00 51 1011.4
20260503222715 84 96 1.0 0.0 0.00 0.00 0.00 51 1011.4
20260503222605 84 32 1.0 0.0 0.00 0.00 0.00 50 1011.4
20260503222510 84 152 0.0 0.0 0.00 0.00 0.00 51 1011.4
20260503222425 84 139 0.0 0.0 0.00 0.00 0.00 51 1011.4
20260503222304 84 198 0.0 0.0 0.00 0.00 0.00 50 1011.4
20260503222219 84 135 0.0 0.0 0.00 0.00 0.00 50 1011.4
20260503222123 84 224 1.0 0.0 0.00 0.00 0.00 50 1011.4
20260503222043 84 116 1.0 0.0 0.00 0.00 0.00 50 1011.4
20260503221938 84 245 1.0 0.0 0.00 0.00 0.00 50 1011.4
20260503221839 84 98 1.0 0.0 0.00 0.00 0.00 50 1011.4
20260503221725 84 204 1.0 0.0 0.00 0.00 0.00 50 1011.4
20260503221555 84 258 2.0 0.0 0.00 0.00 0.00 50 1011.5
20260503221510 84 121 2.0 0.0 0.00 0.00 0.00 50 1011.5
20260503221414 84 153 2.0 0.0 0.00 0.00 0.00 49 1011.5
20260503221310 84 58 3.0 0.0 0.00 0.00 0.00 50 1011.5
20260503221202 84 169 2.0 0.0 0.00 0.00 0.00 49 1011.5
20260503221122 84 174 2.0 0.0 0.00 0.00 0.00 49 1011.5
20260503221001 84 210 2.0 0.0 0.00 0.00 0.00 49 1011.5
20260503220921 85 329 2.0 0.0 0.00 0.00 0.00 49 1011.5
20260503220759 85 329 1.0 0.0 0.00 0.00 0.00 49 1011.5
20260503220707 85 329 1.0 0.0 0.00 0.00 0.00 49 1011.5
20260503220619 85 329 1.0 0.0 0.00 0.00 0.00 49 1011.5
20260503220519 85 192 1.0 0.0 0.00 0.00 0.00 49 1011.5
20260503220412 85 214 1.0 0.0 0.00 0.00 0.00 50 1011.5
20260503220333 85 168 1.0 0.0 0.00 0.00 0.00 49 1011.5
20260503220236 85 187 1.0 0.0 0.00 0.00 0.00 49 1011.5
20260503220110 85 165 1.0 0.0 0.00 0.00 0.00 49 1011.9
20260503220006 85 196 1.0 0.0 0.00 0.00 0.00 49 1011.9
20260503215906 85 205 1.0 0.0 0.00 0.00 0.00 49 1011.9
20260503215759 85 184 1.0 0.0 0.00 0.00 0.00 50 1011.9
20260503215723 84 200 1.0 0.0 0.00 0.00 0.00 49 1011.9
20260503215612 84 200 1.0 0.0 0.00 0.00 0.00 49 1011.9
20260503215457 84 181 1.0 0.0 0.00 0.00 0.00 50 1011.9
20260503215410 84 222 1.0 0.0 0.00 0.00 0.00 49 1011.9
20260503215334 84 208 2.0 0.0 0.00 0.00 0.00 49 1011.9
20260503215221 84 100 2.0 0.0 0.00 0.00 0.00 48 1011.9
20260503215135 85 196 2.0 0.0 0.00 0.00 0.00 49 1011.9
20260503215015 85 228 2.0 0.0 0.00 0.00 0.00 49 1011.9
20260503214906 85 199 2.0 0.0 0.00 0.00 0.00 49 1011.9
20260503214828 85 228 2.0 0.0 0.00 0.00 0.00 49 1011.9
20260503214720 85 196 2.0 0.0 0.00 0.00 0.00 49 1011.9
20260503214643 85 229 2.0 0.0 0.00 0.00 0.00 50 1012.3
20260503214455 85 169 2.0 0.0 0.00 0.00 0.00 49 1012.3
20260503214358 85 180 2.0 0.0 0.00 0.00 0.00 49 1012.3
20260503214320 85 188 1.0 0.0 0.00 0.00 0.00 49 1012.3
20260503214248 85 198 1.0 0.0 0.00 0.00 0.00 49 1012.3
20260503214117 85 188 1.0 0.0 0.00 0.00 0.00 50 1012.3
20260503214008 85 171 1.0 0.0 0.00 0.00 0.00 50 1012.3
20260503213932 84 185 1.0 0.0 0.00 0.00 0.00 50 1012.3
20260503213815 84 202 0.0 0.0 0.00 0.00 0.00 50 1012.3
20260503213734 84 219 0.0 0.0 0.00 0.00 0.00 49 1012.3
20260503213113 84 216 1.0 0.0 0.00 0.00 0.00 49 1012.3
20260503213008 84 266 1.0 0.0 0.00 0.00 0.00 48 1012.3
20260503212904 84 265 1.0 0.0 0.00 0.00 0.00 50 1012.3
20260503212805 84 140 1.0 0.0 0.00 0.00 0.00 49 1012.3
20260503212716 84 244 1.0 0.0 0.00 0.00 0.00 49 1012.3
20260503212616 84 202 1.0 0.0 0.00 0.00 0.00 49 1012.3
20260503212530 84 107 1.0 0.0 0.00 0.00 0.00 50 1012.3
20260503212417 84 32 1.0 0.0 0.00 0.00 0.00 50 1012.3
20260503212309 84 168 1.0 0.0 0.00 0.00 0.00 50 1012.3
20260503212207 84 226 1.0 0.0 0.00 0.00 0.00 49 1012.3
20260503212134 84 218 1.0 0.0 0.00 0.00 0.00 49 1012.3
20260503212008 84 214 1.0 0.0 0.00 0.00 0.00 49 1012.3
20260503211930 84 212 0.0 0.0 0.00 0.00 0.00 49 1012.3
20260503211822 84 154 0.0 0.0 0.00 0.00 0.00 49 1012.3
20260503211721 84 94 0.0 0.0 0.00 0.00 0.00 49 1012.4
20260503211613 84 84 0.0 0.0 0.00 0.00 0.00 50 1012.4
20260503211518 84 98 0.0 0.0 0.00 0.00 0.00 50 1012.4
20260503211409 84 111 0.0 0.0 0.00 0.00 0.00 50 1012.4
20260503211302 84 34 0.0 0.0 0.00 0.00 0.00 49 1012.4
20260503211203 84 34 1.0 0.0 0.00 0.00 0.00 49 1012.4
20260503211119 84 37 1.0 0.0 0.00 0.00 0.00 49 1012.4
20260503211019 84 77 1.0 0.0 0.00 0.00 0.00 49 1012.4
20260503210910 84 90 1.0 0.0 0.00 0.00 0.00 49 1012.4
20260503210815 84 109 1.0 0.0 0.00 0.00 0.00 49 1012.4
20260503210707 84 178 1.0 0.0 0.00 0.00 0.00 49 1012.4
20260503210631 84 217 1.0 0.0 0.00 0.00 0.00 49 1012.4
20260503210503 84 132 1.0 0.0 0.00 0.00 0.00 49 1012.4
20260503210413 84 93 2.0 0.0 0.00 0.00 0.00 49 1012.4
20260503210317 84 78 1.0 0.0 0.00 0.00 0.00 50 1012.4
20260503210207 84 202 1.0 0.0 0.00 0.00 0.00 49 1012.4
20260503210134 84 208 1.0 0.0 0.00 0.00 0.00 50 1012.8
20260503210009 84 205 1.0 0.0 0.00 0.00 0.00 49 1012.8
20260503205905 84 171 1.0 0.0 0.00 0.00 0.00 48 1012.8
20260503205810 84 110 1.0 0.0 0.00 0.00 0.00 48 1012.8
20260503205722 84 94 1.0 0.0 0.00 0.00 0.00 48 1012.8
20260503205623 84 92 1.0 0.0 0.00 0.00 0.00 49 1012.8
20260503205517 84 194 1.0 0.0 0.00 0.00 0.00 49 1012.8
20260503205444 84 101 1.0 0.0 0.00 0.00 0.00 50 1012.8
20260503205321 84 171 1.0 0.0 0.00 0.00 0.00 50 1012.8
20260503205222 84 244 1.0 0.0 0.00 0.00 0.00 50 1012.8
20260503205113 84 220 0.0 0.0 0.00 0.00 0.00 49 1012.8
20260503205008 83 215 1.0 0.0 0.00 0.00 0.00 50 1012.8
20260503204912 83 73 1.0 0.0 0.00 0.00 0.00 49 1012.8
20260503204824 83 103 1.0 0.0 0.00 0.00 0.00 49 1012.8
20260503204723 83 245 1.0 0.0 0.00 0.00 0.00 49 1012.8
20260503204621 83 219 0.0 0.0 0.00 0.00 0.00 51 1012.9
20260503204521 83 70 0.0 0.0 0.00 0.00 0.00 50 1012.9
20260503204414 83 16 0.0 0.0 0.00 0.00 0.00 49 1012.9
20260503204313 83 292 0.0 0.0 0.00 0.00 0.00 49 1012.9
20260503204208 84 149 0.0 0.0 0.00 0.00 0.00 50 1012.9
20260503204129 84 173 0.0 0.0 0.00 0.00 0.00 49 1012.9
20260503204001 84 251 0.0 0.0 0.00 0.00 0.00 49 1012.9
20260503203913 84 185 0.0 0.0 0.00 0.00 0.00 50 1012.9
20260503203819 84 218 0.0 0.0 0.00 0.00 0.00 51 1012.9
20260503203710 84 53 0.0 0.0 0.00 0.00 0.00 50 1012.9
20260503203613 83 348 0.0 0.0 0.00 0.00 0.00 53 1012.9
20260503203508 83 89 0.0 0.0 0.00 0.00 0.00 51 1012.9
20260503203429 83 23 0.0 0.0 0.00 0.00 0.00 52 1012.9
20260503203301 83 23 0.0 0.0 0.00 0.00 0.00 49 1012.9
20260503203215 83 23 0.0 0.0 0.00 0.00 0.00 49 1012.9
20260503203056 83 26 0.0 0.0 0.00 0.00 0.00 50 1013.4
20260503203002 83 26 0.0 0.0 0.00 0.00 0.00 50 1013.4
20260503202904 83 26 0.0 0.0 0.00 0.00 0.00 50 1013.4
20260503202825 83 26 0.0 0.0 0.00 0.00 0.00 50 1013.4
20260503202716 84 25 0.0 0.0 0.00 0.00 0.00 50 1013.4
20260503202608 84 52 0.0 0.0 0.00 0.00 0.00 49 1013.4
20260503202509 84 134 0.0 0.0 0.00 0.00 0.00 50 1013.4
20260503202406 84 250 0.0 0.0 0.00 0.00 0.00 50 1013.4
20260503202327 84 95 0.0 0.0 0.00 0.00 0.00 51 1013.4
20260503202201 83 10 0.0 0.0 0.00 0.00 0.00 51 1013.4
20260503202120 83 101 0.0 0.0 0.00 0.00 0.00 51 1013.4
20260503202041 83 30 0.0 0.0 0.00 0.00 0.00 50 1013.4
20260503201911 83 98 0.0 0.0 0.00 0.00 0.00 49 1013.4
20260503201813 84 44 0.0 0.0 0.00 0.00 0.00 49 1013.4
20260503201735 84 12 0.0 0.0 0.00 0.00 0.00 50 1013.4
20260503201625 83 198 0.0 0.0 0.00 0.00 0.00 50 1014.0
20260503201508 83 111 0.0 0.0 0.00 0.00 0.00 51 1014.0
20260503201421 83 40 0.0 0.0 0.00 0.00 0.00 51 1014.0
20260503201321 83 17 0.0 0.0 0.00 0.00 0.00 50 1014.0
20260503201236 83 350 0.0 0.0 0.00 0.00 0.00 49 1014.0
20260503201115 84 31 0.0 0.0 0.00 0.00 0.00 49 1014.0
20260503201007 84 36 0.0 0.0 0.00 0.00 0.00 49 1014.0
20260503200929 84 24 0.0 0.0 0.00 0.00 0.00 51 1014.0
20260503200806 83 34 0.0 0.0 0.00 0.00 0.00 53 1014.0
20260503200719 83 24 0.0 0.0 0.00 0.00 0.00 51 1014.0
20260503200620 83 46 0.0 0.0 0.00 0.00 0.00 51 1014.0
20260503200512 83 24 0.0 0.0 0.00 0.00 0.00 50 1014.0
20260503200432 83 24 0.0 0.0 0.00 0.00 0.00 49 1014.0
20260503200303 83 24 0.0 0.0 0.00 0.00 0.00 49 1014.0
20260503200223 84 28 0.0 0.0 0.00 0.00 0.00 49 1014.0
20260503200121 84 28 0.0 0.0 0.00 0.00 0.00 48 1014.3
20260503200043 84 24 0.0 0.0 0.00 0.00 0.00 50 1014.3
20260503195901 84 97 0.0 0.0 0.00 0.00 0.00 49 1014.3
20260503195814 84 286 0.0 0.0 0.00 0.00 0.00 49 1014.3
20260503195718 84 138 0.0 0.0 0.00 0.00 0.00 49 1014.3
20260503195614 84 133 0.0 0.0 0.00 0.00 0.00 49 1014.3
20260503195517 84 213 0.0 0.0 0.00 0.00 0.00 50 1014.3
20260503195409 84 278 0.0 0.0 0.00 0.00 0.00 50 1014.3
20260503195304 84 182 0.0 0.0 0.00 0.00 0.00 50 1014.3
20260503195231 84 86 0.0 0.0 0.00 0.00 0.00 49 1014.3
20260503195106 84 245 0.0 0.0 0.00 0.00 0.00 49 1014.3
20260503195007 84 245 0.0 0.0 0.00 0.00 0.00 49 1014.3
20260503194929 85 185 0.0 0.0 0.00 0.00 0.00 48 1014.3
20260503194818 85 92 0.0 0.0 0.00 0.00 0.00 49 1014.3
20260503194711 85 173 0.0 0.0 0.00 0.00 0.00 48 1014.3
20260503194616 85 182 0.0 0.0 0.00 0.00 0.00 48 1014.5
20260503194511 85 96 0.0 0.0 0.00 0.00 0.00 50 1014.5
20260503194431 84 88 0.0 0.0 0.00 0.00 0.00 50 1014.5
20260503194302 84 184 0.0 0.0 0.00 0.00 0.00 50 1014.5
20260503194217 84 205 0.0 0.0 0.00 0.00 0.00 50 1014.5
20260503194119 84 251 0.0 0.0 0.00 0.00 0.00 49 1014.5
20260503194011 84 187 0.0 0.0 0.00 0.00 0.00 50 1014.5
20260503193903 84 192 0.0 0.0 0.00 0.00 0.00 48 1014.5
20260503193810 84 20 0.0 0.0 0.00 0.00 0.00 48 1014.5
20260503193707 84 115 0.0 0.0 0.00 0.00 0.00 49 1014.5
20260503193632 84 91 0.0 0.0 0.00 0.00 0.00 48 1014.5
20260503193544 85 56 0.0 0.0 0.00 0.00 0.00 48 1014.5
20260503193423 85 252 0.0 0.0 0.00 0.00 0.00 48 1014.5
20260503193315 85 86 0.0 0.0 0.00 0.00 0.00 48 1014.5
20260503193215 85 240 1.0 0.0 0.00 0.00 0.00 48 1014.5
20260503193106 85 117 1.0 0.0 0.00 0.00 0.00 49 1014.7
20260503193027 86 109 1.0 0.0 0.00 0.00 0.00 49 1014.7
20260503192902 86 99 1.0 0.0 0.00 0.00 0.00 47 1014.7
20260503192814 86 116 1.0 0.0 0.00 0.00 0.00 47 1014.7
20260503192735 86 242 1.0 0.0 0.00 0.00 0.00 48 1014.7
20260503192614 86 170 1.0 0.0 0.00 0.00 0.00 47 1014.7
20260503192526 86 192 1.0 0.0 0.00 0.00 0.00 48 1014.7
20260503192430 86 204 1.0 0.0 0.00 0.00 0.00 48 1014.7
20260503192350 86 115 1.0 0.0 0.00 0.00 0.00 48 1014.7
20260503192228 86 211 1.0 0.0 0.00 0.00 0.00 48 1014.7
20260503192122 85 80 1.0 0.0 0.00 0.00 0.00 47 1014.7
20260503192018 85 233 1.0 0.0 0.00 0.00 0.00 47 1014.7
20260503191919 85 169 0.0 0.0 0.00 0.00 0.00 48 1014.7
20260503191810 85 168 0.0 0.0 0.00 0.00 0.00 50 1014.7
20260503191701 85 197 0.0 0.0 0.00 0.00 0.00 49 1014.7
20260503191625 85 208 0.0 0.0 0.00 0.00 0.00 49 1014.7
20260503191549 85 225 0.0 0.0 0.00 0.00 0.00 49 1015.0
20260503191422 84 165 0.0 0.0 0.00 0.00 0.00 50 1015.0
20260503191328 84 248 0.0 0.0 0.00 0.00 0.00 50 1015.0
20260503191207 84 110 0.0 0.0 0.00 0.00 0.00 51 1015.0
20260503191105 83 40 0.0 0.0 0.00 0.00 0.00 50 1015.0
20260503191028 83 101 0.0 0.0 0.00 0.00 0.00 51 1015.0
20260503190921 83 51 0.0 0.0 0.00 0.00 0.00 50 1015.0
20260503190823 83 17 0.0 0.0 0.00 0.00 0.00 49 1015.0
20260503190736 84 17 0.0 0.0 0.00 0.00 0.00 49 1015.0
20260503190618 84 32 0.0 0.0 0.00 0.00 0.00 50 1015.0
20260503190500 84 333 0.0 0.0 0.00 0.00 0.00 50 1015.0
20260503190412 84 139 0.0 0.0 0.00 0.00 0.00 51 1015.0
20260503190313 84 176 0.0 0.0 0.00 0.00 0.00 51 1015.0
20260503190204 83 171 0.0 0.0 0.00 0.00 0.00 52 1015.0
20260503190128 83 171 0.0 0.0 0.00 0.00 0.00 54 1015.0
20260503190023 83 170 0.0 0.0 0.00 0.00 0.00 52 1015.1
20260503185949 82 171 0.0 0.0 0.00 0.00 0.00 51 1015.1
20260503185820 82 81 0.0 0.0 0.00 0.00 0.00 53 1015.1
20260503185657 82 206 0.0 0.0 0.00 0.00 0.00 52 1015.1
20260503185604 82 207 0.0 0.0 0.00 0.00 0.00 52 1015.1
20260503185521 82 223 0.0 0.0 0.00 0.00 0.00 52 1015.1
20260503185440 82 32 0.0 0.0 0.00 0.00 0.00 52 1015.1
20260503185314 81 32 0.0 0.0 0.00 0.00 0.00 52 1015.1
20260503185214 82 24 0.0 0.0 0.00 0.00 0.00 51 1015.1
20260503185126 82 23 0.0 0.0 0.00 0.00 0.00 52 1015.1
20260503185006 82 44 1.0 0.0 0.00 0.00 0.00 51 1015.1
20260503184918 82 65 1.0 0.0 0.00 0.00 0.00 50 1015.1
20260503184823 83 36 1.0 0.0 0.00 0.00 0.00 50 1015.1
20260503184725 83 238 1.0 0.0 0.00 0.00 0.00 50 1015.1
20260503184637 83 100 1.0 0.0 0.00 0.00 0.00 50 1015.5
20260503184520 83 109 1.0 0.0 0.00 0.00 0.00 50 1015.5
20260503184413 83 83 1.0 0.0 0.00 0.00 0.00 50 1015.5
20260503184335 83 51 1.0 0.0 0.00 0.00 0.00 49 1015.5
20260503184208 83 86 1.0 0.0 0.00 0.00 0.00 50 1015.5
20260503184103 83 56 1.0 0.0 0.00 0.00 0.00 50 1015.5
20260503184008 83 300 0.0 0.0 0.00 0.00 0.00 50 1015.5
20260503183920 83 14 0.0 0.0 0.00 0.00 0.00 50 1015.5
20260503183822 83 93 0.0 0.0 0.00 0.00 0.00 51 1015.5
20260503183713 83 236 0.0 0.0 0.00 0.00 0.00 50 1015.5
20260503183608 84 221 1.0 0.0 0.00 0.00 0.00 49 1015.5
20260503183508 84 197 1.0 0.0 0.00 0.00 0.00 50 1015.5
20260503183408 84 196 1.0 0.0 0.00 0.00 0.00 51 1015.5
20260503183321 83 233 1.0 0.0 0.00 0.00 0.00 50 1015.5
20260503183227 83 177 1.0 0.0 0.00 0.00 0.00 50 1015.5
20260503183118 83 207 0.0 0.0 0.00 0.00 0.00 51 1015.8
20260503183014 83 337 0.0 0.0 0.00 0.00 0.00 51 1015.8
20260503182916 83 200 0.0 0.0 0.00 0.00 0.00 52 1015.8
20260503182805 83 13 0.0 0.0 0.00 0.00 0.00 49 1015.8
20260503182712 83 38 0.0 0.0 0.00 0.00 0.00 49 1015.8
20260503182624 83 32 0.0 0.0 0.00 0.00 0.00 47 1015.8
20260503182505 84 69 0.0 0.0 0.00 0.00 0.00 49 1015.8
20260503182419 84 50 0.0 0.0 0.00 0.00 0.00 48 1015.8
20260503182323 84 123 0.0 0.0 0.00 0.00 0.00 49 1015.8
20260503182240 84 113 0.0 0.0 0.00 0.00 0.00 50 1015.8
20260503182122 84 118 0.0 0.0 0.00 0.00 0.00 51 1015.8
20260503182013 84 143 0.0 0.0 0.00 0.00 0.00 51 1015.8
20260503181907 83 210 0.0 0.0 0.00 0.00 0.00 51 1015.8
20260503181834 83 119 0.0 0.0 0.00 0.00 0.00 51 1015.8
20260503181705 83 219 0.0 0.0 0.00 0.00 0.00 51 1015.8
20260503181609 83 188 0.0 0.0 0.00 0.00 0.00 51 1016.0
20260503181506 83 269 0.0 0.0 0.00 0.00 0.00 51 1016.0
20260503181408 83 173 0.0 0.0 0.00 0.00 0.00 52 1016.0
20260503181257 82 200 0.0 0.0 0.00 0.00 0.00 53 1016.0
20260503181211 82 19 0.0 0.0 0.00 0.00 0.00 53 1016.0
20260503181116 82 32 0.0 0.0 0.00 0.00 0.00 53 1016.0
20260503181008 82 349 0.0 0.0 0.00 0.00 0.00 51 1016.0
20260503180913 82 13 1.0 0.0 0.00 0.00 0.00 50 1016.0
20260503180805 83 49 1.0 0.0 0.00 0.00 0.00 50 1016.0